EHI
0 0 0 0 0 0 0 0 0 0 0 0 0 0 0 0 0 0 0 0 0 0 0 0 0 0 0 0 0 0 0 0 0 0 0 0 0 0 0 0 0 0 0 0
0 0 0 0 0 0 0 0 0 0 0 0 0 0 0 0 0 0 0 0 0 0 0 0 0 0 0 0 0 0 0 0 0 0 0 0 0 0 0 0 0 0 0 0
0 0 0 0 0 0 0 0 0 0 0 0 0 0 0 0 0 0 0 0 0 0 0 0 0 0 0 0 0 0 0 0 0 0 0 0 0 0 0 0 0 0 0 0
0 0 0 0 0 0 0 0 0 0 0 0 0 0 0 0 0 0 0 0 0 0 0 0 0 0 0 0 0 0 0 0 0 0 0 0 0 0 0 0 0 0 0 0
0 0 0 0 0 0 0 0 0 0 0 0 0 0 0 0 0 0 0 0 0 0 0 0 0 0 0 0 0 0 0 0 0 0 0 0 0 0 0 0 0 0 0 0
0 0 0 0 0 0 0 0 0 0 0 0 0 0 0 0 0 0 0 0 0 0 0 0 0 0 0 0 0 0 0 0 0 0 0 0 0 0 0 0 0 0 0 0
0 0 0 0 0 0 0 0 0 0 0 0 0 0 0 0 0 0 0 0 0 0 0 0 0 0 0 0 0 0 0 0 0 0 0 0 0 0 0 0 0 0 0 0
0 0 0 0 0 0 0 0 0 0 0 0 0 0 0 0 0 0 0 0 0 0 0 0 0 0 0 0 0 0 0 0 0 0 0 0 0 0 0 0 0 0 0 0
0 0 0 0 0 0 0 0 0 0 0 0 0 0 0 0 0 0 0 0 0 0 0 0 0 0 0 0 0 0 0 0 0 0 0 0 0 0 0 0 0 0 0 0
0 0 0 0 0 0 0 0 0 0 0 0 0 0 0 0 0 0 0 0 0 0 0 0 0 0 0 0 0 0 0 0 0 0 0 0 0 0 0 0 0 0 0 0
0 0 0 0 0 0 0 0 0 0 0 0 0 0 0 0 0 0 0 0 0 0 0 0 0 0 0 0 0 0 0 0 0 0 0 0 0 0 0 0 0 0 0 0
0 0 0 0 0 0 0 0 0 0 0 0 0 0 0 0 0 0 0 0 0 0 0 0 0 0 0 0 0 0 0 0 0 0 0 0 0 0 0 0 0 0 0 0
0 0 0 0 0 0 0 0 0 0 0 0 0 0 0 0 0 0 0 0 0 0 0 0 0 0 0 0 0 0 0 0 0 0 0 0 0 0 0 0 0 0 0 0
0 0 0 0 0 0 0 0 0 0 0 0 0 0 0 0 0 0 0 0 0 0 0 0 0 0 0 0 0 0 0 0 0 0 0 0 0 0 0 0 0 0 0 0
0 0 0 0 0 0 0 0 0 0 0 0 0 0 0 0 0 0 0 0 0 0 0 0 0 0 0 0 0 0 0 0 0 0 0 0 0 0 0 0 0 0 0 0
0 0 0 0 0 0 0 0 0 0 0 0 0 0 0 0 0 0 0 0 0 0 0 0 0 0 0 0 0 0 0 0 0 0 0 0 0 0 0 0 0 0 0 0
0 0 0 0 0 0 0 0 0 0 0 0 0 0 0 0 0 0 0 0 0 0 0 0 0 0 0 0 0 0 0 0 0 0 0 0 0 0 0 0 0 0 0 0
0 0 0 0 0 0 0 0 0 0 0 0 0 0 0 0 0 0 0 0 0 0 0 0 0 0 0 0 0 0 0 0 0 0 0 0 0 0 0 0 0 0 0 0
0 0 0 0 0 0 0 0 0 0 0 0 0 0 0 0 0 0 0 0 0 0 0 0 0 0 0 0 0 0 0 0 0 0 0 0 0 0 0 0 0 0 0 0
0 0 0 0 0 0 0 0 0 0 0 0 0 0 0 0 0 0 0 0 0 0 0 0 0 0 0 0 0 0 0 0 0 0 0 0 0 0 0 0 0 0 0 0
0 0 0 0 0 0 0 0 0 0 0 0 0 0 0 0 0 0 0 0 0 0 0 0 0 0 0 0 0 0 0 0 0 0 0 0 0 0 0 0 0 0 0 0
0 0 0 0 0 0 0 0 0 0 0 0 0 0 0 0 0 0 0 0 0 0 0 0 0 0 0 0 0 0 0 0 0 0 0 0 0 0 0 0 0 0 0 0
0 0 0 0 0 0 0 0 0 0 0 0 0 0 0 0 0 0 0 0 0 0 0 0 0 0 0 0 0 0 0 0 0 0 0 0 0 0 0 0 0 0 0 0
0 0 0 0 0 0 0 0 0 0 0 0 0 0 0 0 0 0 0 0 0 0 0 0 0 0 0 0 0 0 0 0 0 0 0 0 0 0 0 0 0 0 0 0
0 0 0 0 0 0 0 0 0 0 0 0 0 0 0 0 0 0 0 0 0 0 0 0 0 0 0 0 0 0 0 0 0 0 0 0 0 0 0 0 0 0 0 0
0 0 0 0 0 0 0 0 0 0 0 0 0 0 0 0 0 0 0 0 0 0 0 0 0 0 0 0 0 0 0 0 0 0 0 0 0 0 0 0 0 0 0 0
Wind_Speed
2 2 8 10 11 8 5 7 8 7 4 5 9 11 8 5 5 6 6 7 8 8 6 5 6 7 8 7 8 8 8 7 6 5 4 4 3 2 2 2 3 4 4 5
0 8 9 6 7 8 8 8 8 6 4 5 6 9 6 6 7 7 8 8 8 7 4 5 6 7 8 9 8 8 8 8 7 5 4 3 3 2 2 2 2 3 4 4
6 6 4 5 7 9 10 10 8 6 3 2 2 7 6 4 4 5 6 7 7 9 9 7 7 7 7 8 9 8 8 8 7 6 4 4 3 2 2 2 2 2 3 4
5 5 4 5 8 8 10 8 7 5 3 5 4 6 7 4 4 6 5 5 6 6 7 7 7 7 8 8 7 7 7 7 7 7 7 7 5 4 3 3 2 2 3 3
5 3 3 6 7 6 7 5 5 5 5 4 4 5 7 3 5 7 6 5 5 5 6 7 7 8 7 7 7 7 7 6 6 7 8 7 5 3 2 3 3 2 2 3
5 4 3 4 4 4 3 1 1 1 2 8 9 7 6 4 6 4 3 3 3 4 4 5 5 5 5 5 6 6 7 6 6 6 7 7 6 5 5 4 4 3 2 2
6 5 3 2 3 2 1 3 1 2 4 8 6 7 6 3 2 3 3 2 1 2 3 3 4 5 5 6 6 6 7 6 6 6 6 6 6 7 7 6 5 4 3 2
4 6 4 3 2 4 4 5 5 6 6 4 4 7 4 2 2 2 2 1 1 2 2 2 2 4 5 6 6 6 7 6 6 6 6 5 5 5 4 5 5 5 4 3
3 7 5 6 3 3 2 4 4 2 2 2 4 2 2 4 5 4 4 3 2 1 1 1 2 2 4 4 5 6 7 5 6 6 6 5 5 5 4 4 4 4 3 3
2 6 7 6 3 2 1 1 1 3 4 4 3 2 2 3 3 3 3 1 1 1 1 2 2 2 2 3 3 3 4 5 5 5 5 4 5 4 4 4 4 4 4 4
1 3 6 4 1 2 2 0 2 2 3 3 3 3 1 2 1 1 1 1 1 1 2 2 2 2 2 3 3 3 3 2 3 3 3 4 4 4 4 4 4 4 4 5
2 1 4 5 4 2 0 0 1 2 2 2 2 3 4 2 2 2 2 3 4 4 3 3 3 3 3 3 3 2 2 2 2 3 3 3 3 3 3 3 4 4 4 5
1 1 3 6 4 4 3 3 3 2 0 1 2 3 5 6 6 5 4 4 4 5 5 5 4 4 3 2 2 2 1 2 2 2 3 3 3 3 3 3 3 4 4 4
2 1 3 5 5 4 6 6 4 1 1 1 3 3 5 8 7 6 5 5 4 5 5 5 5 4 3 2 2 1 1 1 1 2 3 3 3 3 3 3 3 3 4 4
2 1 3 5 5 3 4 6 4 2 2 3 3 3 4 6 5 5 5 5 6 6 6 6 5 4 4 3 3 2 1 1 1 2 2 2 2 2 2 2 2 3 3 4
1 2 3 4 3 1 4 6 4 3 2 2 1 2 4 5 5 5 5 5 6 5 5 6 5 5 4 4 3 3 2 1 1 1 1 1 1 2 2 2 2 3 3 3
2 1 1 4 4 3 3 5 3 1 3 2 2 4 5 5 5 4 4 4 5 5 5 5 4 4 3 3 3 2 2 1 1 1 0 1 1 1 2 2 2 3 3 3
3 2 2 2 2 1 2 3 3 1 3 4 4 5 4 4 4 3 3 4 5 5 5 5 4 4 4 4 4 3 2 1 1 1 1 0 0 1 1 2 2 2 2 3
2 2 1 1 1 2 3 5 4 3 2 5 6 6 6 5 4 4 5 5 5 5 5 4 3 3 4 4 4 3 2 2 1 1 1 1 0 1 1 2 2 2 2 2
3 2 1 0 1 2 4 8 9 2 2 6 7 7 7 6 3 4 6 6 6 5 4 4 4 3 4 4 4 3 2 2 1 1 1 1 0 1 1 2 2 1 2 2
5 4 2 0 1 2 5 10 6 3 5 8 7 6 6 4 2 4 5 5 5 5 5 5 4 3 3 4 3 3 2 2 2 1 1 1 1 1 1 1 1 1 1 1
1 2 2 1 1 3 6 6 3 3 6 5 5 5 5 4 4 4 4 5 5 5 6 5 4 4 4 4 3 3 4 3 3 2 2 2 2 1 1 1 1 1 1 1
0 1 1 1 2 3 4 3 3 4 5 5 5 4 4 4 4 4 5 5 4 5 5 5 4 4 5 5 4 4 4 4 3 2 2 2 2 2 2 1 1 1 1 1
3 2 1 1 2 4 5 5 5 5 5 5 5 4 4 4 4 4 4 5 5 5 5 5 5 5 6 6 6 5 5 4 3 2 2 2 2 3 3 2 1 1 1 1
3 2 1 2 3 4 4 6 7 6 6 6 5 5 4 4 4 4 4 4 4 5 5 5 5 5 6 6 6 6 5 4 3 3 2 3 2 2 2 3 2 2 1 0
2 2 1 3 3 3 5 6 7 7 7 6 6 6 6 5 4 4 4 4 4 5 5 5 5 5 5 6 6 6 6 5 4 3 3 2 2 2 2 2 3 5 4 5
Wind_Direction
199 187 220 217 216 222 217 222 239 241 225 202 230 246 248 227 210 217 216 207 203 204 206 188 175 169 163 162 162 163 160 159 152 147 148 147 152 152 147 151 151 150 152 151
303 241 239 234 234 241 241 245 251 270 234 213 240 256 253 229 216 210 207 207 205 200 189 186 174 167 168 170 169 168 168 166 164 162 159 150 143 150 159 150 143 147 151 157
225 249 243 233 237 237 240 232 235 246 285 248 259 279 251 243 226 223 212 204 199 193 189 183 175 174 171 173 175 175 173 169 165 155 137 122 102 97 117 148 159 160 156 159
261 269 262 243 239 228 247 233 234 231 215 241 193 256 258 224 238 229 223 206 203 196 185 179 171 173 177 179 173 168 168 165 164 158 155 156 160 167 179 172 167 164 161 160
267 289 265 247 250 228 243 238 232 231 215 242 211 226 272 205 227 227 220 213 207 193 180 178 179 179 178 173 167 165 159 159 161 163 164 164 163 162 145 143 152 167 174 173
274 287 279 262 279 240 252 297 286 260 184 234 210 195 266 220 215 221 225 224 207 188 177 177 174 161 158 157 157 159 157 160 160 161 164 167 166 158 153 160 172 178 178 181
312 299 303 320 327 304 116 124 178 228 218 236 190 189 240 260 223 192 190 211 192 147 149 155 156 154 158 159 160 160 161 165 167 166 169 173 174 171 174 176 181 180 181 191
309 297 304 321 260 233 225 178 187 206 217 250 192 205 233 327 18 64 96 111 84 88 112 114 142 158 161 161 162 165 170 171 173 174 177 176 173 178 183 183 181 187 191 195
283 282 309 315 305 192 206 223 215 186 234 235 224 235 307 16 28 33 38 49 63 84 82 84 83 129 150 152 161 171 173 172 175 176 174 174 176 178 182 182 181 184 186 184
254 280 298 311 329 330 217 212 156 181 192 228 247 230 254 330 339 355 8 15 356 35 50 48 50 70 131 142 145 147 160 170 172 173 175 176 181 182 181 178 183 184 185 180
300 266 303 335 328 308 9 332 253 210 199 187 225 246 284 232 249 296 312 357 26 48 46 42 44 55 88 98 112 125 135 143 160 171 174 171 176 177 174 181 188 187 184 180
297 236 277 275 276 299 201 241 245 212 240 202 200 249 349 9 3 13 20 24 29 32 34 37 44 61 70 82 94 118 134 147 171 171 165 171 173 170 174 185 190 183 184 186
323 40 327 330 334 2 360 349 337 301 193 176 199 248 1 18 23 22 31 26 33 39 39 39 42 49 62 65 73 93 131 157 169 164 163 163 166 171 180 190 190 187 185 186
37 137 199 234 270 302 306 315 324 14 219 243 232 276 342 359 5 4 14 25 40 49 48 40 38 36 37 41 43 44 46 130 154 158 165 173 177 182 185 187 187 187 183 182
58 240 254 270 280 286 312 318 315 280 244 224 258 275 315 332 336 346 360 21 38 37 37 32 27 21 19 21 21 14 16 35 139 156 169 187 187 181 178 181 184 178 176 181
3 243 277 278 273 323 341 339 329 312 294 253 291 307 333 337 2 6 9 18 20 17 20 18 18 19 15 6 357 358 355 358 131 150 183 189 180 178 182 184 179 172 175 178
287 249 269 273 293 325 325 335 333 28 6 347 294 294 332 350 358 354 354 7 8 8 6 8 7 1 353 346 343 336 346 15 75 90 125 164 179 186 193 184 176 181 183 177
246 254 239 270 11 257 258 346 354 19 28 11 341 335 335 325 326 351 18 19 5 2 358 352 349 351 350 347 347 349 11 40 70 67 49 38 194 199 193 187 196 199 191 185
229 210 235 236 204 273 318 344 339 307 327 357 346 345 349 354 5 9 18 18 6 354 345 336 339 346 350 351 349 3 23 30 52 45 18 353 285 213 203 205 213 210 190 190
31 56 93 336 180 246 310 323 320 289 314 355 354 350 344 0 1 321 345 356 356 359 355 350 356 8 6 351 351 11 17 29 22 356 336 326 286 226 223 221 217 219 196 197
358 7 35 326 225 268 318 327 353 70 297 324 336 343 344 345 303 303 330 349 358 356 355 359 9 11 357 349 357 7 10 1 341 348 358 3 351 319 284 249 214 179 174 170
353 350 351 4 359 288 334 1 29 299 308 325 333 340 344 345 349 352 352 353 357 359 1 5 13 9 2 1 5 4 360 347 356 10 18 13 6 8 24 55 64 108 136 147
338 232 231 215 236 307 339 344 324 324 331 332 333 336 344 347 348 355 355 353 359 3 4 6 13 11 7 4 8 6 347 346 4 26 28 25 21 19 27 51 81 98 124 145
321 334 249 274 307 331 342 354 352 347 341 333 334 338 350 347 344 351 353 357 2 5 8 10 15 15 8 4 7 3 353 358 23 41 37 37 40 32 31 33 40 76 113 132
301 326 335 285 299 329 348 351 346 349 352 352 353 354 356 354 347 349 352 357 358 1 4 10 15 15 6 5 6 2 1 10 25 35 39 36 37 37 37 31 25 22 12 60
338 320 291 271 299 304 305 328 345 351 354 353 355 357 359 4 357 358 1 358 358 2 5 11 15 15 9 8 7 3 3 14 29 29 29 30 29 28 37 40 27 24 25 26